Regional Weather Roundup
Issued by NWS

Home | Current Version | Previous Version | Graphics & Text | Print | Product List | Glossary On
Versions: 1 2 3 4 5 6 7 8 9 10 11 12 13 14 15 16 17 18 19 20 21 22 23 24 25 26 27 28 29 30 31 32 33 34 35 36 37 38 39 40 41 42 43 44 45 46 47 48 49 50
000
ASUS43 KLOT 170703
RWRIL

ILLINOIS REGIONAL WEATHER ROUNDUP
NATIONAL WEATHER SERVICE CHICAGO/ROMEOVILLE IL
100 AM CST FRI NOV 17 2017

NOTE: "FAIR" INDICATES FEW OR NO CLOUDS BELOW 12,000 FEET WITH NO
SIGNIFICANT WEATHER AND/OR OBSTRUCTIONS TO VISIBILITY.

* THESE STATIONS ARE NOT UNDER NWS QUALITY CONTROL. THEY ALSO MAY NOT
  REPORT WEATHER SUCH AS PRECIPITATION OR FOG.

ILZ001-002-007-009-015-016-024-170800-
NORTHWEST ILLINOIS

CITY           SKY/WX    TMP DP  RH WIND       PRES   REMARKS
MOLINE         CLOUDY    33  28  81 SE15      30.13F WCI  23
STERLING*        N/A    N/A N/A N/A MISG        N/A
SAVANNA*       CLOUDY    33  29  86 SE8       30.16R WCI  26
$$

ILZ003-004-008-010-011-017-018-170800-
NORTH CENTRAL ILLINOIS

CITY           SKY/WX    TMP DP  RH WIND       PRES   REMARKS
ROCKFORD       CLOUDY    34  28  79 S9        30.20R WCI  27
FREEPORT*      CLOUDY    32  28  86 SE9       30.18F WCI  24
ROCHELLE*      CLOUDY    32  29  90 SE5       30.19S WCI  27
DE KALB*       CLOUDY    33  30  88 SE3       30.20R
PERU*          CLOUDY    31  28  87 S9        30.19S WCI  23
$$

ILZ005-006-012>014-019>023-170800-
NORTHEAST ILLINOIS

CITY           SKY/WX    TMP DP  RH WIND       PRES   REMARKS
CHICAGO-OHARE  CLOUDY    37  30  75 S8        30.18F WCI  31
CHICAGO-MIDWAY CLOUDY    38  31  76 S9        30.19F WCI  31
AURORA         CLOUDY    35  30  82 S5        30.20S WCI  31
LANSING*       CLOUDY    36  32  85 S5        30.21S WCI  32
JOLIET*        CLOUDY    36  31  83 SE5       30.20S WCI  32
WAUKEGAN       CLOUDY    36  31  82 CALM      30.18F
DUPAGE AIRPORT CLOUDY    35  30  82 S8        30.18F WCI  29
KANKAKEE*      CLOUDY    33  29  86 SE6       30.20F WCI  28
WHEELING       CLOUDY    38  32  79 S5        30.20F WCI  34
MORRIS*        CLOUDY    33  29  86 S6        30.19R WCI  27
ROMEOVILLE*    CLOUDY    35  31  85 SE5       30.19S WCI  31
NORTHERLY ISL    N/A     37  30  76 SE8         N/A  WCI  31
$$

LMZ740>746-170800-
SOUTHERN LAKE MICHIGAN

STATION/POSITION SKY/WX   TEMP    WIND        PRES    VSBY  WAVE
                          AIR SEA DIR/SP/G                  HT/PER
                          (F)     (DEG/KT/KT) (MB)    (MI)  (FT/S)
SOUTHERN BUOY              41 50   90/ 12/ 16 1023.1          3/ 8
HARRISON CRIB              39     180/ 11/ 12   N/A
BURNHAM HARBOR             37     150/ 12       N/A
CALUMET HARBOR             37     140/  7/ 12 1022.3F
BURNS HARBOR               37        CALM     1023.4F
MICHIGAN CITY              37     140/  8/  9   N/A
$$

ILZ025>027-034>036-040-047-049-050-058-095>099-170800-
WEST-CENTRAL ILLINOIS

CITY           SKY/WX    TMP DP  RH WIND       PRES   REMARKS
QUINCY         PTCLDY    34  30  85 SE13      30.10F WCI  25
GALESBURG*     CLOUDY    32  31  96 SE9       30.15S WCI  24
MACOMB*        PTCLDY    30  29  98 SE10      30.17S FOG     WCI  21
JACKSONVILLE*  PTCLDY    31  30  95 SE8       30.15F WCI  24
PITTSFIELD*    CLOUDY    34  31  92 SE9       30.14F WCI  26
$$

ILZ028>032-037-038-041>044-048-051>054-059>061-170800-
CENTRAL ILLINOIS

CITY           SKY/WX    TMP DP  RH WIND       PRES   REMARKS
PONTIAC        PTCLDY    32  31  98 SE6       30.20S WCI  26
BLOOMINGTON    CLOUDY    31  29  92 SE13      30.17F WCI  21
DECATUR        PTCLDY    31  28  89 SE9       30.17F WCI  23
PEORIA         MOCLDY    31  29  92 SE8       30.17F WCI  23
LACON*         PTCLDY    31  29  92 SE5       30.17S WCI  27
LINCOLN*       CLOUDY    32  30  94 SE7       30.17F WCI  25
SPRINGFIELD    CLOUDY    32  30  92 SE10      30.17F WCI  24
TAYLORVILLE    CLOUDY    31  29  94 SE7       30.17F WCI  24
$$

ILZ033-039-045-046-055>057-062-063-170800-
EAST-CENTRAL ILLINOIS

CITY           SKY/WX    TMP DP  RH WIND       PRES   REMARKS
CHAMPAIGN      CLOUDY    31  28  89 SE9       30.18F WCI  23
DANVILLE*      CLOUDY    30  28  92 SE5       30.17F WCI  25
RANTOUL*       CLOUDY    33  32  95 SE7       30.19F WCI  27
MATTOON        CLEAR     31  28  89 SE7       30.18F WCI  24
PARIS*         CLOUDY    31  29  94 SE6       30.22S WCI  25
$$

ILZ079-100>102-170800-
SOUTHWEST ILLINOIS

CITY           SKY/WX    TMP DP  RH WIND       PRES   REMARKS
ALTON          CLOUDY    31  31 100 E7        30.16F FOG     WCI  24
BELLEVILLE     CLOUDY    30  28  91 E3        30.15F FOG
CAHOKIA*       CLOUDY    32  29  88 S5        30.17S WCI  27
SPARTA*        CLOUDY    31  30  98 SE10      30.17F FOG     WCI  22
$$

ILZ064>066-069>071-074>076-080>082-084>086-088>090-092>094-170800-
SOUTH-CENTRAL ILLINOIS

CITY           SKY/WX    TMP DP  RH WIND       PRES   REMARKS
CARBONDALE     CLOUDY    33  33 100 S6        30.20R FOG     WCI  28
CAIRO*         CLOUDY    33  32  96 E6        30.19S FOG     WCI  27
EFFINGHAM*     CLOUDY    32  32  99 E6        30.21F WCI  26
MARION         CLOUDY    35  34  97 SE3       30.21S FOG
MT. VERNON     CLOUDY    29  28  96 CALM      30.20  FOG
CENTRALIA*     CLOUDY    32  32  99 SE5       30.18S FOG     WCI  27
SALEM*         CLOUDY    32  30  92 SE3       30.19S FOG
METROPOLIS*    CLEAR     31  30  96 CALM      30.20S FOG
$$

ILZ067-068-072-073-078-083-087-091-170800-
SOUTHEAST ILLINOIS

CITY           SKY/WX    TMP DP  RH WIND       PRES   REMARKS
LAWRENCEVILLE  CLEAR     32  28  85 E3        30.22F
FLORA*         CLEAR     30  29  94 CALM      30.21F FOG
FAIRFIELD*     CLOUDY    30  30  99 CALM      30.20R FOG
HARRISBURG*    CLEAR     31  31  99 CALM      30.20F FOG
ROBINSON*      CLEAR     31  28  92 SE5       30.23S WCI  26
CARMI*         CLEAR     29  28  98 CALM      30.19F FOG
$$

ABBREVIATIONS USED IN REMARKS
   TC - TEMPERATURE IN CELSIUS
  WCI - WIND CHILL INDEX
   HX - HEAT INDEX
  VSB - VISIBILITY
$$





USA.gov is the U.S. government's official web portal to all federal, state and local government web resources and services.